Location: IoMAS Observatory
(54.1780°N, 4.6265°W)
Time: 09:38:17
(UTC+01:00)

ISS - Pass Details

Date: 01 December 2021
Orbit: 413 x 422 km, 51.6° (Epoch: 23 January)

Event Time Altitude Azimuth Distance (km) Brightness Sun altitude
Rises 18:33:40 0° 267° (W) 2,385 1.6 -12.8°
Reaches altitude 10° 18:35:48 10° 263° (W) 1,517 0.4 -13.1°
Maximum altitude 18:39:08 54° 186° (S) 520 -3.2 -13.6°
Enters shadow 18:41:20 19° 113° (ESE) 1,068 -2.1 -13.9°
